Weather History for Redmond, OR

Change the Weather History Date:

Saturday, October 12, 2013

  Actual Average Record
Temperature  
Mean Temperature 40 °F 49 °F  
Max Temperature 51 °F 66 °F 84 °F (1964)
Min Temperature 28 °F 32 °F 17 °F (2002)
Degree Days  
Heating Degree Days 25 16  
Month to date heating degree days 263 174  
Since 1 July heating degree days 529 573  
Cooling Degree Days 0 0  
Month to date cooling degree days 0 0  
Year to date cooling degree days 350 222  
Moisture  
Dew Point 33 °F    
Average Humidity 72    
Maximum Humidity 92    
Minimum Humidity 52    
Precipitation  
Precipitation T in 0.02 in 0.35 in (1962)
Month to date precipitation 0.05 0.20  
Year to date precipitation 4.14 6.34  
Sea Level Pressure  
Sea Level Pressure 30.08 in    
Wind  
Wind Speed 4 mph (NNW)    
Max Wind Speed 16 mph    
Max Gust Speed 20 mph    
Visibility 10 miles    
Events      
T = Trace of Precipitation, MM = Missing Value Source: NWS Daily Summary

Daily Weather History Graph

Daily Weather History Graph

Search for Another Location

Airport:

Trip Planner

Search our weather history database for the weather conditions in past years. The results will help you decide how hot, cold, wet, or windy it might be!

Date:

Astronomy

Oct. 12, 2013 Rise Set
Actual Time 7:16 AM PDT 6:25 PM PDT
Civil Twilight 6:47 AM PDT 6:54 PM PDT
Nautical Twilight 6:13 AM PDT 7:27 PM PDT
Astronomical Twilight 5:39 AM PDT 8:01 PM PDT
Moon 2:50 PM PDT (10/12) 12:11 AM PDT (10/12)
Length of Visible Light 12h 07m
Length of Day
11h 08m
First Quarter, 60% of the Moon is Illuminated
Oct 12
First Quarter
Oct 18
Full
Oct 26
Last Quarter
Nov 3
New
Nov 9
First Quarter

Hourly Weather History & Observations

Time (PDT) Temp. Windchill Dew Point Humidity Pressure Visibility Wind Dir Wind Speed Gust Speed Precip Events Conditions
12:56 AM 33.1 °F - 30.0 °F 89% 30.05 in 10.0 mi Calm Calm - N/A   Clear
1:56 AM 30.0 °F - 28.0 °F 92% 30.05 in 10.0 mi Calm Calm - N/A   Clear
2:56 AM 30.9 °F - 28.9 °F 92% 30.05 in 10.0 mi Calm Calm - N/A   Partly Cloudy
3:56 AM 30.9 °F 27.5 °F 28.9 °F 92% 30.04 in 10.0 mi SSE 3.5 mph - N/A   Overcast
4:56 AM 32.0 °F 28.7 °F 28.9 °F 88% 30.04 in 10.0 mi South 3.5 mph - N/A   Overcast
5:56 AM 32.0 °F - 30.0 °F 92% 30.04 in 10.0 mi Calm Calm - N/A   Overcast
6:56 AM 32.0 °F 27.5 °F 28.9 °F 88% 30.05 in 10.0 mi NE 4.6 mph - N/A   Overcast
7:56 AM 32.0 °F - 28.9 °F 88% 30.05 in 10.0 mi Calm Calm - N/A   Mostly Cloudy
8:56 AM 37.9 °F - 33.1 °F 83% 30.05 in 10.0 mi Calm Calm - N/A   Overcast
9:56 AM - - - N/A% 30.04 in 10.0 mi Calm Calm - N/A   Mostly Cloudy
10:56 AM 44.1 °F - 33.1 °F 65% 30.06 in 10.0 mi Calm Calm - N/A   Mostly Cloudy
11:56 AM 48.0 °F - 33.1 °F 56% 30.06 in 10.0 mi North 5.8 mph - N/A   Overcast
12:56 PM 46.0 °F 42.5 °F 35.1 °F 66% 30.06 in 10.0 mi WNW 6.9 mph - 0.00 in   Overcast
1:56 PM 48.0 °F - 33.1 °F 56% 30.06 in 10.0 mi North 6.9 mph - N/A   Overcast
2:56 PM 48.0 °F - 32.0 °F 54% 30.05 in 10.0 mi North 4.6 mph - 0.00 in   Overcast
3:56 PM 48.9 °F - 33.1 °F 54% 30.06 in 10.0 mi NNE 9.2 mph - N/A   Overcast
4:56 PM 50.0 °F - 33.1 °F 52% 30.07 in 10.0 mi NNE 11.5 mph - N/A   Mostly Cloudy
5:56 PM 46.9 °F - 33.1 °F 59% 30.08 in 10.0 mi NNE 6.9 mph - N/A   Overcast
6:56 PM 44.1 °F 42.5 °F 34.0 °F 68% 30.11 in 10.0 mi NNW 3.5 mph - N/A   Overcast
7:56 PM 44.1 °F 40.8 °F 36.0 °F 73% 30.13 in 10.0 mi North 5.8 mph - N/A   Overcast
8:52 PM 42.8 °F 40.1 °F 35.6 °F 76% 30.10 in 10.0 mi NNW 4.6 mph - N/A   Overcast
8:56 PM 43.0 °F 39.5 °F 36.0 °F 76% 30.12 in 10.0 mi NNW 5.8 mph - N/A   Overcast
9:27 PM 41.0 °F 37.1 °F 35.6 °F 81% 30.11 in 10.0 mi NNW 5.8 mph - N/A   Overcast
9:56 PM 41.0 °F 38.0 °F 36.0 °F 82% 30.12 in 10.0 mi NNW 4.6 mph - N/A   Mostly Cloudy
10:08 PM 42.8 °F 40.1 °F 35.6 °F 76% 30.12 in 10.0 mi NW 4.6 mph - N/A   Overcast
10:39 PM 41.0 °F 38.0 °F 35.6 °F 81% 30.12 in 10.0 mi NW 4.6 mph - N/A   Overcast
10:56 PM 41.0 °F 37.1 °F 36.0 °F 82% 30.14 in 10.0 mi NW 5.8 mph - N/A   Overcast
11:11 PM 41.0 °F 36.4 °F 37.4 °F 87% 30.12 in 10.0 mi NW 6.9 mph - N/A   Overcast
11:56 PM 41.0 °F 35.8 °F 37.0 °F 86% 30.14 in 10.0 mi NW 8.1 mph - N/A   Overcast